Zurück zum Katalog

METEOR 2-17 DEB

AktivPO
NORAD 45522·DEBRIS·🇷🇺 Russia

Gestartet Jan 30, 1988 von Plesetsk Cosmodrome

Loading…

Nächste Überflüge (nächste 24 Stunden)

TLE

AktuellSource: Space-Track

Epoche: Sep 12, 2026, 13:09 UTC

1 45522U 88005BC  26255.54805938  .00001344  00000-0  86053-3 0  9998
2 45522  82.5354 196.7193 0011923  67.0260 293.2168 14.02710752603997

Verfolge METEOR 2-17 DEB in Echtzeit mit AllMySat

Download on the App Store